Showing default

QUICK3, 64558

Orbit data source: Space-Track

QUICK3, 64558 is a Lithuanian payload satellite in SSO that was launched on Mon, 23 Jun 2025 UTC via an FALCON 9 launch vehicle from the Air Force Western Test Range (AFWTR). Payload-class satellites include a variety of spacecraft equipped with specific instruments for various scientific and technological missions. These include communications satellites like Starlink; space stations such as the ISS; scientific satellites like the Hubble; Earth observation satellites from companies like Planet Labs, Umbra, and HawkEye 360; GPS; miniature CubeSats for education and research; and military/defense satellites.

Loading next visibility...
Identifier
64558, 2025-135AG
Orbit
SSO
Country
Flag of LTLT / LTU
Related business
Manufacturer
NANAV/JENAU
Mission
Operational Amateur Technology
Bus & Motor
CUBESAT 3U, Unknown motor
Mass
5 kg wet, 5 kg dry
Launch date (UTC)
2025-06-23 (11 months ago)
Launch vehicle
FALCON 9
Launch site
Air Force Western Test Range (AFWTR)
Object type
Payload
Rocket body
Debris
Shape & HBR
Box + 1 Rod, 1.5 m
Radar Cross Section
0.035 m², Medium (>0.1 m² and < 1m²)

Expand to show TLE details & history
Last TLE update: 13 hours ago

TLE from 13 hours ago
0 QUICK3
1 64558U 25135AG  26133.05039270  .00008123  00000-0  31464-3 0  9990
2 64558  97.4694 249.5210 0003799 284.9563  75.1255 15.26422715 49493
Epoch: 2026-05-13T01:12Z
TLE epoch observation values (Epoch: 2026-05-13T01:12:33.929Z)
Latitude
0.00002°
Longitude
0.56365°
Altitude
488.945 km
Speed
7.621 km/s
True Right ascension
16h 38m 05s
True Declination
0° 00' 00"
Sunlit
Object was in full shadow at epoch
Visualization orbit readout
Latitude
Unknown
Longitude
Unknown
Altitude
Unknown
Speed
Unknown
Apparent Right ascension
Unknown
Apparent Declination
Unknown
Sunlit
N/A
Visualization observer readout
Local Sidereal Time
22:07:29
Azimuth
Unknown
Elevation
Unknown
Doppler factor
Unknown
Orbital elements
Apogee altitude
486.083 km
Perigee altitude
480.87 km
Semi-major axis
6,861.614 km
Eccentricity
0.00038
Inclination
97.4694°
RAAN
249.521°
Arg. of periapsis
284.9563°
True anomaly
75.16758°
Mean anomaly
75.1255°
Eccentric anomaly
75.14654°
Mean motion
3.8186 °/min
Orbital period
94.28 mins
BSTAR
0.00031464
Loading maneuver chart data...
Computing Atmospheric mass density...
Loading historical data...
Loading historical data...
Loading historical data...
Loading historical data...
Loading historical data...
Loading historical data...
Loading historical data...

Documentation

Showing up to 5 results
|